Location: La Bastide
(43.1661°N, 1.2755°E)
Time: 03:33:51
(UTC+00:00)

Tiangong - Pass Details

Date: 15 February 2026
Orbit: 382 x 391 km, 41.5° (Epoch: 6 March)

Event Time Altitude Azimuth Distance (km) Brightness Sun altitude
Rises 18:28:21 0° 260° (W) 2,254 3.9 -12.0°
Reaches altitude 10° 18:30:26 10° 257° (WSW) 1,399 2.2 -12.4°
Maximum altitude 18:33:33 62° 176° (S) 431 -2.0 -12.9°
Enters shadow 18:35:10 25° 102° (ESE) 811 -1.1 -13.2°
